[[{"header":{"parameterUnit":"m.s-1","parameterCategory":1,"la1":30.2992,"la2":30.254,"lo1":-89.0895,"lo2":-89.0443,"dy":0.0025,"dx":0.0025,"nx":19,"ny":19,"refTime":"2026-04-25T03:00:00:Z","depth":0,"parameterNumber":2,"parameterNumberName":"U-component_of_WINDS"},"data":[0,0,0,-1.2533,-1.2531,-1.2443,-1.2443,-1.2357,-1.2356,0,0,0,0,0,0,0,0,0,0,0,-1.2575,-1.2575,-1.2533,-1.2531,-1.2443,-1.2443,-1.2357,-1.2356,0,0,0,0,0,0,0,0,0,0,0,-1.2575,-1.2575,-1.2575,-1.2531,-1.2443,-1.2443,-1.2357,-1.2414,0,0,0,0,0,0,0,0,0,0,-1.2495,-1.255,-1.2575,-1.2575,-1.2531,-1.2444,-1.2443,-1.2416,-1.241,-1.2408,0,-1.2411,0,-1.2383,-1.2352,-1.2352,0,0,0,-1.2519,-1.2555,-1.2517,-1.2575,-1.253,-1.2444,-1.2479,-1.2413,-1.2406,-1.2401,-1.2409,-1.2406,-1.2381,-1.2352,-1.2352,-1.2382,-1.2383,0,0,-1.2524,-1.2568,-1.2521,-1.2513,-1.2529,-1.2482,-1.2477,-1.2408,-1.2421,-1.2409,-1.2403,-1.238,-1.2352,-1.2351,-1.2381,-1.2382,0,0,0,-1.2546,-1.2572,-1.2535,-1.2518,-1.25,-1.248,-1.2474,-1.2424,-1.2408,-1.2402,-1.2379,-1.2351,-1.235,-1.238,-1.2382,-1.2461,0,0,0,-1.2548,-1.2585,-1.2537,-1.2564,-1.2502,-1.2461,-1.2491,-1.2412,-1.2403,-1.2379,-1.2351,-1.235,-1.238,-1.2381,-1.2457,-1.2491,0,0,0,-1.2575,-1.2588,-1.2581,-1.2566,-1.253,-1.2461,-1.244,-1.2409,-1.239,-1.2352,-1.235,-1.2379,-1.2381,-1.2453,-1.2485,-1.2512,0,0,0,-1.2617,-1.2652,-1.2583,-1.2613,-1.2531,-1.2511,-1.244,-1.2422,-1.24,-1.2351,-1.238,-1.2381,-1.2452,-1.2481,-1.2509,-1.2543,-1.2562,0,0,-1.2686,-1.2662,-1.2676,-1.2612,-1.2615,-1.252,-1.2535,-1.2471,-1.2427,-1.2399,-1.2399,-1.2458,-1.2484,-1.2511,-1.265,-1.2666,0,0,0,-1.2713,-1.2724,-1.2715,-1.2696,-1.2649,-1.2611,-1.2541,-1.2518,-1.2492,-1.2422,-1.2474,-1.2488,-1.2502,-1.2517,-1.2529,-1.2539,-1.239,-1.239,-1.239,-1.2874,-1.2816,-1.2835,-1.2767,-1.275,-1.2677,-1.2658,-1.2614,-1.2559,-1.2573,-1.2564,-1.2656,-1.2675,-1.2684,-1.2694,-1.2578,-1.2578,-1.2578,-1.2579,-1.2969,-1.2976,-1.2904,-1.2898,-1.2836,-1.283,-1.2762,-1.2724,-1.271,-1.2657,-1.2667,-1.2615,-1.2702,-1.2708,-1.2584,-1.2583,-1.2582,-1.2582,-1.2581,-1.3068,-1.3061,-1.3033,-1.2999,-1.298,-1.291,-1.2899,-1.2843,-1.2791,-1.28,-1.2785,-1.2784,-1.2775,-1.2797,-1.2797,-1.2798,-1.2798,-1.2798,-1.2798,-1.3182,-1.3148,-1.3146,-1.31,-1.3081,-1.3048,-1.2977,-1.2956,-1.2919,-1.2879,-1.2878,-1.2824,-1.2722,-1.2698,-1.2803,-1.2802,-1.2801,-1.2801,-1.2801,-1.3301,-1.3265,-1.3263,-1.3244,-1.3185,-1.3171,-1.31,-1.3063,-1.3037,-1.3034,-1.2977,-1.2911,-1.2882,-1.2872,-1.2851,-1.299,-1.299,-1.299,-1.299,-1.3385,-1.3365,-1.335,-1.3323,-1.3291,-1.3227,-1.3226,-1.3171,-1.3109,-1.309,-1.3062,-1.303,-1.3021,-1.2997,-1.2984,-1.2964,-1.3128,-1.3128,-1.3128,-1.3455,-1.3429,-1.344,-1.3379,-1.3329,-1.3288,-1.3286,-1.3258,-1.318,-1.3133,-1.3074,-1.3068,-1.3016,-1.3002,-1.2953,-1.2934,-1.2896,0,0]},{"header":{"parameterUnit":"m.s-1","parameterCategory":1,"la1":30.2992,"la2":30.254,"lo1":-89.0895,"lo2":-89.0443,"dy":0.0025,"dx":0.0025,"nx":19,"ny":19,"refTime":"2026-04-25T03:00:00:Z","depth":0,"parameterNumber":3,"parameterNumberName":"V-component_of_WINDS"},"data":[0,0,0,2.758,2.7581,2.7645,2.7645,2.77,2.77,0,0,0,0,0,0,0,0,0,0,0,2.7548,2.7548,2.758,2.7581,2.7645,2.7645,2.77,2.77,0,0,0,0,0,0,0,0,0,0,0,2.7548,2.7548,2.7548,2.7582,2.7644,2.7645,2.77,2.7661,0,0,0,0,0,0,0,0,0,0,2.7604,2.7561,2.7548,2.7548,2.7582,2.7644,2.7645,2.7659,2.7663,2.7661,0,2.7657,0,2.7679,2.7703,2.7703,0,0,0,2.7591,2.7557,2.7587,2.7548,2.7582,2.7644,2.7619,2.7662,2.7666,2.7666,2.7658,2.7661,2.768,2.7703,2.7703,2.7661,2.766,0,0,2.7588,2.7551,2.7584,2.7589,2.758,2.7617,2.7621,2.7665,2.7653,2.7658,2.7662,2.7681,2.7703,2.7703,2.7662,2.7661,0,0,0,2.7571,2.7548,2.7578,2.7586,2.76,2.7618,2.7623,2.7651,2.7664,2.7663,2.7682,2.7703,2.7704,2.7663,2.7661,2.7595,0,0,0,2.7569,2.7539,2.7576,2.7554,2.7599,2.7627,2.7607,2.7661,2.7667,2.7682,2.7703,2.7704,2.7663,2.7662,2.7598,2.7569,0,0,0,2.7548,2.7537,2.7541,2.7552,2.7578,2.7627,2.7642,2.7663,2.7678,2.7703,2.7704,2.7664,2.7662,2.7602,2.7574,2.7548,0,0,0,2.7515,2.748,2.7539,2.7507,2.7577,2.7585,2.7643,2.765,2.7663,2.7703,2.7663,2.7662,2.7602,2.7578,2.7551,2.752,2.7503,0,0,2.745,2.7471,2.7455,2.751,2.7499,2.7579,2.7557,2.7603,2.7638,2.7651,2.765,2.7597,2.7575,2.7549,2.7423,2.741,0,0,0,2.7422,2.741,2.7415,2.7427,2.7462,2.749,2.7543,2.756,2.7574,2.7638,2.7582,2.7569,2.7555,2.7542,2.7531,2.7521,2.7654,2.7654,2.7654,2.7278,2.7326,2.7303,2.7358,2.7369,2.7425,2.7437,2.747,2.7513,2.7499,2.7503,2.7421,2.7404,2.7396,2.7386,2.749,2.749,2.749,2.749,2.7188,2.7179,2.7239,2.7239,2.7289,2.7288,2.734,2.7371,2.7377,2.7422,2.7412,2.7457,2.738,2.7374,2.7485,2.7486,2.7487,2.7487,2.7487,2.71,2.7104,2.7126,2.7149,2.7161,2.7217,2.7221,2.7266,2.7308,2.7298,2.7307,2.7309,2.7316,2.7299,2.7299,2.7299,2.7298,2.7298,2.7298,2.6999,2.7027,2.7025,2.706,2.7074,2.7098,2.7153,2.7167,2.7195,2.7227,2.7227,2.7272,2.7364,2.7386,2.7294,2.7295,2.7295,2.7296,2.7296,2.6891,2.6923,2.692,2.6934,2.6979,2.6987,2.7045,2.707,2.7089,2.7089,2.7136,2.7196,2.722,2.7229,2.7248,2.7126,2.7126,2.7126,2.7126,2.6817,2.6833,2.6841,2.6861,2.6885,2.6937,2.6931,2.6973,2.7021,2.7035,2.706,2.7088,2.7096,2.7115,2.7127,2.7145,2.6999,2.6999,2.6999,2.6753,2.6774,2.6762,2.6811,2.685,2.6881,2.6877,2.6895,2.6956,2.6995,2.7047,2.7053,2.71,2.7112,2.7152,2.7169,2.7204,0,0]}]]